contact:dominique.lefevre@mio.osupytheas.fr, maurice.libes@osupytheas.fr, didier.mallarino@osupytheas.fr
Project:EMSO http://www.emso-fr.org/EMSO-France
Depth: 2436.0 m
Title:EMSO Ligure Ouest : Data MII capteur MICROCAT
DateTime_Computer,Latitude,Longitude,Temperature,Conductivity,Pressure,DateTime_Instrument
DateTime_Computer,Latitude,Longitude,degC,S m-1,dbar,DateTime_Instrument
2020-10-08T00:00:56Z,42.805,6.029,13.2976,4.59984,2470.156,2020-10-08T02:01:49Z
2020-10-08T00:03:59Z,42.805,6.029,13.2976,4.59980,2470.156,2020-10-08T02:04:53Z
2020-10-08T00:07:02Z,42.805,6.029,13.2972,4.59978,2470.217,2020-10-08T02:07:56Z
2020-10-08T00:10:05Z,42.805,6.029,13.2974,4.59976,2470.18,2020-10-08T02:10:59Z
2020-10-08T00:13:08Z,42.805,6.029,13.2971,4.59975,2470.171,2020-10-08T02:14:02Z
2020-10-08T00:16:12Z,42.805,6.029,13.2972,4.59979,2470.171,2020-10-08T02:17:05Z
2020-10-08T00:19:15Z,42.805,6.029,13.2974,4.59978,2470.156,2020-10-08T02:20:08Z
2020-10-08T00:22:18Z,42.805,6.029,13.2971,4.59980,2470.18,2020-10-08T02:23:11Z
2020-10-08T00:25:21Z,42.805,6.029,13.2971,4.59978,2470.11,2020-10-08T02:26:14Z
2020-10-08T00:28:24Z,42.805,6.029,13.2974,4.59976,2470.18,2020-10-08T02:29:17Z
2020-10-08T00:31:27Z,42.805,6.029,13.2974,4.59978,2470.156,2020-10-08T02:32:21Z
2020-10-08T00:34:30Z,42.805,6.029,13.2974,4.59978,2470.171,2020-10-08T02:35:24Z
2020-10-08T00:37:33Z,42.805,6.029,13.2971,4.59981,2470.203,2020-10-08T02:38:27Z
2020-10-08T00:40:36Z,42.805,6.029,13.2975,4.59976,2470.156,2020-10-08T02:41:30Z
2020-10-08T00:43:40Z,42.805,6.029,13.2969,4.59980,2470.156,2020-10-08T02:44:33Z
2020-10-08T00:46:43Z,42.805,6.029,13.2974,4.59976,2470.18,2020-10-08T02:47:36Z
2020-10-08T00:49:46Z,42.805,6.029,13.2971,4.59976,2470.133,2020-10-08T02:50:39Z
2020-10-08T00:52:49Z,42.805,6.029,13.2975,4.59976,2470.171,2020-10-08T02:53:42Z
2020-10-08T00:55:52Z,42.805,6.029,13.2973,4.59976,2470.133,2020-10-08T02:56:46Z
2020-10-08T00:58:55Z,42.805,6.029,13.2975,4.59980,2470.171,2020-10-08T02:59:49Z
2020-10-08T01:01:58Z,42.805,6.029,13.2972,4.59979,2470.18,2020-10-08T03:02:52Z
2020-10-08T01:05:01Z,42.805,6.029,13.2977,4.59976,2470.156,2020-10-08T03:05:55Z
2020-10-08T01:08:05Z,42.805,6.029,13.2974,4.59978,2470.147,2020-10-08T03:08:58Z
2020-10-08T01:11:08Z,42.805,6.029,13.2975,4.59980,2470.156,2020-10-08T03:12:01Z
2020-10-08T01:14:11Z,42.805,6.029,13.2972,4.59976,2470.156,2020-10-08T03:15:04Z
2020-10-08T01:17:14Z,42.805,6.029,13.2974,4.59975,2470.147,2020-10-08T03:18:07Z
2020-10-08T01:20:17Z,42.805,6.029,13.2972,4.59979,2470.194,2020-10-08T03:21:10Z
2020-10-08T01:23:20Z,42.805,6.029,13.2971,4.59975,2470.171,2020-10-08T03:24:14Z
2020-10-08T01:26:23Z,42.805,6.029,13.2974,4.59975,2470.133,2020-10-08T03:27:17Z
2020-10-08T01:29:26Z,42.805,6.029,13.2971,4.59976,2470.133,2020-10-08T03:30:20Z
2020-10-08T01:32:30Z,42.805,6.029,13.2976,4.59977,2470.133,2020-10-08T03:33:23Z
2020-10-08T01:35:33Z,42.805,6.029,13.2976,4.59976,2470.133,2020-10-08T03:36:26Z
2020-10-08T01:38:36Z,42.805,6.029,13.2974,4.59976,2470.147,2020-10-08T03:39:29Z
2020-10-08T01:41:39Z,42.805,6.029,13.2975,4.59977,2470.147,2020-10-08T03:42:32Z
2020-10-08T01:44:42Z,42.805,6.029,13.2975,4.59976,2470.133,2020-10-08T03:45:35Z
2020-10-08T01:47:45Z,42.805,6.029,13.2976,4.59976,2470.11,2020-10-08T03:48:39Z
2020-10-08T01:50:48Z,42.805,6.029,13.2974,4.59976,2470.11,2020-10-08T03:51:42Z
2020-10-08T01:53:51Z,42.805,6.029,13.2971,4.59978,2470.087,2020-10-08T03:54:45Z
2020-10-08T01:56:54Z,42.805,6.029,13.2974,4.59978,2470.11,2020-10-08T03:57:48Z
2020-10-08T01:59:58Z,42.805,6.029,13.2972,4.59976,2470.1,2020-10-08T04:00:51Z
2020-10-08T02:03:01Z,42.805,6.029,13.2976,4.59976,2470.11,2020-10-08T04:03:54Z
2020-10-08T02:06:04Z,42.805,6.029,13.2979,4.59975,2470.087,2020-10-08T04:06:57Z
2020-10-08T02:09:07Z,42.805,6.029,13.2973,4.59978,2470.11,2020-10-08T04:10:00Z
2020-10-08T02:12:10Z,42.805,6.029,13.2975,4.59976,2470.077,2020-10-08T04:13:03Z
2020-10-08T02:15:13Z,42.805,6.029,13.2976,4.59976,2470.124,2020-10-08T04:16:07Z
2020-10-08T02:18:16Z,42.805,6.029,13.2976,4.59978,2470.11,2020-10-08T04:19:10Z
2020-10-08T02:21:19Z,42.805,6.029,13.2974,4.59979,2470.1,2020-10-08T04:22:13Z
2020-10-08T02:24:22Z,42.805,6.029,13.2974,4.59978,2470.087,2020-10-08T04:25:16Z
2020-10-08T02:27:26Z,42.805,6.029,13.2971,4.59976,2470.11,2020-10-08T04:28:19Z
2020-10-08T02:30:29Z,42.805,6.029,13.2975,4.59978,2470.133,2020-10-08T04:31:22Z
2020-10-08T02:33:32Z,42.805,6.029,13.2976,4.59986,2470.087,2020-10-08T04:34:25Z
2020-10-08T02:36:35Z,42.805,6.029,13.2976,4.59979,2470.1,2020-10-08T04:37:28Z
2020-10-08T02:39:38Z,42.805,6.029,13.2976,4.59978,2470.063,2020-10-08T04:40:32Z
2020-10-08T02:42:41Z,42.805,6.029,13.2974,4.59990,2470.087,2020-10-08T04:43:35Z
2020-10-08T02:45:44Z,42.805,6.029,13.2977,4.59982,2470.11,2020-10-08T04:46:38Z
2020-10-08T02:48:47Z,42.805,6.029,13.2980,4.59990,2470.1,2020-10-08T04:49:41Z
2020-10-08T02:51:51Z,42.805,6.029,13.2974,4.59986,2470.087,2020-10-08T04:52:44Z
2020-10-08T02:54:54Z,42.805,6.029,13.2974,4.59981,2470.133,2020-10-08T04:55:47Z
2020-10-08T02:57:57Z,42.805,6.029,13.2978,4.59978,2470.11,2020-10-08T04:58:50Z
2020-10-08T03:01:00Z,42.805,6.029,13.2972,4.59985,2470.087,2020-10-08T05:01:53Z
2020-10-08T03:04:03Z,42.805,6.029,13.2974,4.59989,2470.133,2020-10-08T05:04:56Z
2020-10-08T03:07:06Z,42.805,6.029,13.2976,4.59991,2470.063,2020-10-08T05:08:00Z
2020-10-08T03:10:09Z,42.805,6.029,13.2975,4.59998,2470.1,2020-10-08T05:11:03Z
2020-10-08T03:13:12Z,42.805,6.029,13.2972,4.59983,2470.11,2020-10-08T05:14:06Z
2020-10-08T03:16:15Z,42.805,6.029,13.2969,4.59986,2470.087,2020-10-08T05:17:09Z
2020-10-08T03:19:19Z,42.805,6.029,13.2977,4.59987,2470.087,2020-10-08T05:20:12Z
2020-10-08T03:22:22Z,42.805,6.029,13.2976,4.59978,2470.087,2020-10-08T05:23:15Z
2020-10-08T03:25:25Z,42.805,6.029,13.2976,4.59981,2470.11,2020-10-08T05:26:18Z
2020-10-08T03:28:28Z,42.805,6.029,13.2977,4.59995,2470.087,2020-10-08T05:29:21Z
2020-10-08T03:31:31Z,42.805,6.029,13.2974,4.59979,2470.087,2020-10-08T05:32:25Z
2020-10-08T03:34:34Z,42.805,6.029,13.2973,4.59982,2470.063,2020-10-08T05:35:28Z
2020-10-08T03:37:37Z,42.805,6.029,13.2974,4.59988,2470.087,2020-10-08T05:38:31Z
2020-10-08T03:40:40Z,42.805,6.029,13.2973,4.59986,2470.124,2020-10-08T05:41:34Z
2020-10-08T03:43:44Z,42.805,6.029,13.2971,4.59981,2470.1,2020-10-08T05:44:37Z
2020-10-08T03:46:47Z,42.805,6.029,13.2973,4.59982,2470.11,2020-10-08T05:47:40Z
2020-10-08T03:49:50Z,42.805,6.029,13.2975,4.59988,2470.11,2020-10-08T05:50:43Z
2020-10-08T03:52:53Z,42.805,6.029,13.2976,4.59984,2470.087,2020-10-08T05:53:46Z
2020-10-08T03:55:56Z,42.805,6.029,13.2970,4.59999,2470.087,2020-10-08T05:56:49Z
2020-10-08T03:58:59Z,42.805,6.029,13.2972,4.59992,2470.124,2020-10-08T05:59:53Z
2020-10-08T04:02:02Z,42.805,6.029,13.2972,4.59992,2470.087,2020-10-08T06:02:56Z
2020-10-08T04:05:05Z,42.805,6.029,13.2979,4.59997,2470.087,2020-10-08T06:05:59Z
2020-10-08T04:08:08Z,42.805,6.029,13.2972,4.59991,2470.133,2020-10-08T06:09:02Z
2020-10-08T04:11:12Z,42.805,6.029,13.2978,4.59999,2470.087,2020-10-08T06:12:05Z
2020-10-08T04:14:15Z,42.805,6.029,13.2976,4.60000,2470.087,2020-10-08T06:15:08Z
2020-10-08T04:17:18Z,42.805,6.029,13.2976,4.59996,2470.1,2020-10-08T06:18:11Z
2020-10-08T04:20:21Z,42.805,6.029,13.2974,4.59996,2470.087,2020-10-08T06:21:14Z
2020-10-08T04:23:24Z,42.805,6.029,13.2973,4.59989,2470.063,2020-10-08T06:24:18Z
2020-10-08T04:26:27Z,42.805,6.029,13.2978,4.59986,2470.1,2020-10-08T06:27:21Z
2020-10-08T04:29:30Z,42.805,6.029,13.2976,4.59987,2470.087,2020-10-08T06:30:24Z
2020-10-08T04:32:33Z,42.805,6.029,13.2977,4.59979,2470.124,2020-10-08T06:33:27Z
2020-10-08T04:35:37Z,42.805,6.029,13.2972,4.59996,2470.11,2020-10-08T06:36:30Z
2020-10-08T04:38:40Z,42.805,6.029,13.2974,4.59988,2470.11,2020-10-08T06:39:33Z
2020-10-08T04:41:43Z,42.805,6.029,13.2974,4.59999,2470.073,2020-10-08T06:42:36Z
2020-10-08T04:44:46Z,42.805,6.029,13.2976,4.59996,2470.124,2020-10-08T06:45:39Z
2020-10-08T04:47:49Z,42.805,6.029,13.2976,4.59985,2470.087,2020-10-08T06:48:42Z
2020-10-08T04:50:52Z,42.805,6.029,13.2975,4.59983,2470.11,2020-10-08T06:51:46Z
2020-10-08T04:53:55Z,42.805,6.029,13.2973,4.59991,2470.133,2020-10-08T06:54:49Z
2020-10-08T04:56:58Z,42.805,6.029,13.2976,4.60003,2470.087,2020-10-08T06:57:52Z
2020-10-08T05:00:01Z,42.805,6.029,13.2973,4.60001,2470.1,2020-10-08T07:00:55Z
2020-10-08T05:03:05Z,42.805,6.029,13.2971,4.60000,2470.087,2020-10-08T07:03:58Z
2020-10-08T05:06:08Z,42.805,6.029,13.2973,4.60004,2470.087,2020-10-08T07:07:01Z
2020-10-08T05:09:11Z,42.805,6.029,13.2975,4.59998,2470.087,2020-10-08T07:10:04Z
2020-10-08T05:12:14Z,42.805,6.029,13.2971,4.59996,2470.11,2020-10-08T07:13:07Z
2020-10-08T05:15:17Z,42.805,6.029,13.2978,4.59997,2470.087,2020-10-08T07:16:11Z
2020-10-08T05:18:20Z,42.805,6.029,13.2978,4.59994,2470.087,2020-10-08T07:19:14Z
2020-10-08T05:21:23Z,42.805,6.029,13.2968,4.60001,2470.11,2020-10-08T07:22:17Z
2020-10-08T05:24:26Z,42.805,6.029,13.2974,4.60001,2470.11,2020-10-08T07:25:20Z
2020-10-08T05:27:29Z,42.805,6.029,13.2971,4.60009,2470.087,2020-10-08T07:28:23Z
2020-10-08T05:30:33Z,42.805,6.029,13.2976,4.60003,2470.147,2020-10-08T07:31:26Z
2020-10-08T05:33:36Z,42.805,6.029,13.2975,4.60012,2470.147,2020-10-08T07:34:29Z
2020-10-08T05:36:39Z,42.805,6.029,13.2973,4.60003,2470.1,2020-10-08T07:37:32Z
2020-10-08T05:39:42Z,42.805,6.029,13.2973,4.60013,2470.063,2020-10-08T07:40:35Z
2020-10-08T05:42:45Z,42.805,6.029,13.2978,4.60000,2470.087,2020-10-08T07:43:39Z
2020-10-08T05:45:48Z,42.805,6.029,13.2974,4.60015,2470.087,2020-10-08T07:46:42Z
2020-10-08T05:48:51Z,42.805,6.029,13.2976,4.60028,2470.087,2020-10-08T07:49:45Z
2020-10-08T05:51:54Z,42.805,6.029,13.2971,4.60023,2470.1,2020-10-08T07:52:48Z
2020-10-08T05:54:58Z,42.805,6.029,13.2974,4.60074,2470.087,2020-10-08T07:55:51Z
2020-10-08T05:58:01Z,42.805,6.029,13.2970,4.60012,2470.1,2020-10-08T07:58:54Z
2020-10-08T06:01:04Z,42.805,6.029,13.2973,4.60018,2470.1,2020-10-08T08:01:57Z
2020-10-08T06:04:07Z,42.805,6.029,13.2979,4.60037,2470.063,2020-10-08T08:05:00Z
2020-10-08T06:07:10Z,42.805,6.029,13.2978,4.60035,2470.077,2020-10-08T08:08:04Z
2020-10-08T06:10:13Z,42.805,6.029,13.3013,4.60039,2470.063,2020-10-08T08:11:07Z
2020-10-08T06:13:16Z,42.805,6.029,13.3051,4.60031,2470.11,2020-10-08T08:14:10Z
2020-10-08T06:16:19Z,42.805,6.029,13.3037,4.60024,2470.124,2020-10-08T08:17:13Z
2020-10-08T06:19:22Z,42.805,6.029,13.3042,4.60021,2470.11,2020-10-08T08:20:16Z
2020-10-08T06:22:26Z,42.805,6.029,13.3039,4.60021,2470.1,2020-10-08T08:23:19Z
2020-10-08T06:25:29Z,42.805,6.029,13.3033,4.60011,2470.124,2020-10-08T08:26:22Z
2020-10-08T06:28:32Z,42.805,6.029,13.3044,4.60026,2470.11,2020-10-08T08:29:25Z
2020-10-08T06:31:35Z,42.805,6.029,13.3028,4.60030,2470.077,2020-10-08T08:32:28Z
2020-10-08T06:34:38Z,42.805,6.029,13.3036,4.60014,2470.087,2020-10-08T08:35:32Z
2020-10-08T06:37:41Z,42.805,6.029,13.3029,4.60021,2470.124,2020-10-08T08:38:35Z
2020-10-08T06:40:44Z,42.805,6.029,13.3048,4.60013,2470.124,2020-10-08T08:41:38Z
2020-10-08T06:43:47Z,42.805,6.029,13.3043,4.60026,2470.124,2020-10-08T08:44:41Z
2020-10-08T06:46:51Z,42.805,6.029,13.3043,4.60026,2470.124,2020-10-08T08:47:44Z
2020-10-08T06:49:54Z,42.805,6.029,13.3082,4.60044,2470.11,2020-10-08T08:50:47Z
2020-10-08T06:52:57Z,42.805,6.029,13.3026,4.60034,2470.124,2020-10-08T08:53:50Z
2020-10-08T06:56:00Z,42.805,6.029,13.3024,4.60021,2470.124,2020-10-08T08:56:53Z
2020-10-08T06:59:03Z,42.805,6.029,13.3029,4.60021,2470.124,2020-10-08T08:59:57Z
2020-10-08T07:02:06Z,42.805,6.029,13.3028,4.60025,2470.11,2020-10-08T09:03:00Z
2020-10-08T07:05:09Z,42.805,6.029,13.3028,4.60029,2470.087,2020-10-08T09:06:03Z
2020-10-08T07:08:12Z,42.805,6.029,13.3015,4.60011,2470.147,2020-10-08T09:09:06Z
2020-10-08T07:11:15Z,42.805,6.029,13.3034,4.60010,2470.11,2020-10-08T09:12:09Z
2020-10-08T07:14:19Z,42.805,6.029,13.3028,4.60022,2470.124,2020-10-08T09:15:12Z
2020-10-08T07:17:22Z,42.805,6.029,13.3019,4.60011,2470.133,2020-10-08T09:18:15Z
2020-10-08T07:20:25Z,42.805,6.029,13.3020,4.60008,2470.147,2020-10-08T09:21:18Z
2020-10-08T07:23:28Z,42.805,6.029,13.3022,4.60002,2470.156,2020-10-08T09:24:21Z
2020-10-08T07:26:31Z,42.805,6.029,13.3017,4.60011,2470.147,2020-10-08T09:27:25Z
2020-10-08T07:29:34Z,42.805,6.029,13.3015,4.60005,2470.124,2020-10-08T09:30:28Z
2020-10-08T07:32:37Z,42.805,6.029,13.3014,4.60017,2470.133,2020-10-08T09:33:31Z
2020-10-08T07:35:40Z,42.805,6.029,13.3009,4.60013,2470.171,2020-10-08T09:36:34Z
2020-10-08T07:38:44Z,42.805,6.029,13.3020,4.60014,2470.156,2020-10-08T09:39:37Z
2020-10-08T07:41:47Z,42.805,6.029,13.3029,4.60007,2470.171,2020-10-08T09:42:40Z
2020-10-08T07:44:50Z,42.805,6.029,13.3005,4.60006,2470.133,2020-10-08T09:45:43Z
2020-10-08T07:47:53Z,42.805,6.029,13.3011,4.60015,2470.171,2020-10-08T09:48:46Z
2020-10-08T07:50:56Z,42.805,6.029,13.3014,4.60026,2470.156,2020-10-08T09:51:50Z
2020-10-08T07:53:59Z,42.805,6.029,13.3014,4.60007,2470.147,2020-10-08T09:54:53Z
2020-10-08T07:57:02Z,42.805,6.029,13.3023,4.60016,2470.133,2020-10-08T09:57:56Z
2020-10-08T08:00:05Z,42.805,6.029,13.3011,4.60006,2470.18,2020-10-08T10:00:59Z
2020-10-08T08:03:09Z,42.805,6.029,13.3017,4.60012,2470.156,2020-10-08T10:04:02Z
2020-10-08T08:06:12Z,42.805,6.029,13.3013,4.60019,2470.156,2020-10-08T10:07:05Z
2020-10-08T08:09:15Z,42.805,6.029,13.3022,4.60011,2470.203,2020-10-08T10:10:08Z
2020-10-08T08:12:18Z,42.805,6.029,13.3009,4.60025,2470.203,2020-10-08T10:13:11Z
2020-10-08T08:15:21Z,42.805,6.029,13.3023,4.60007,2470.194,2020-10-08T10:16:14Z
2020-10-08T08:18:24Z,42.805,6.029,13.3019,4.60016,2470.18,2020-10-08T10:19:18Z
2020-10-08T08:21:27Z,42.805,6.029,13.2997,4.60003,2470.18,2020-10-08T10:22:21Z
2020-10-08T08:24:30Z,42.805,6.029,13.3003,4.60005,2470.156,2020-10-08T10:25:24Z
2020-10-08T08:27:34Z,42.805,6.029,13.3007,4.60007,2470.171,2020-10-08T10:28:27Z
2020-10-08T08:30:37Z,42.805,6.029,13.3005,4.60010,2470.18,2020-10-08T10:31:30Z
2020-10-08T08:33:40Z,42.805,6.029,13.2998,4.60004,2470.194,2020-10-08T10:34:33Z
2020-10-08T08:36:43Z,42.805,6.029,13.3001,4.60006,2470.18,2020-10-08T10:37:36Z
2020-10-08T08:39:46Z,42.805,6.029,13.3006,4.60001,2470.203,2020-10-08T10:40:39Z
2020-10-08T08:42:49Z,42.805,6.029,13.3004,4.59991,2470.217,2020-10-08T10:43:43Z
2020-10-08T08:45:52Z,42.805,6.029,13.3013,4.59995,2470.217,2020-10-08T10:46:46Z
2020-10-08T08:48:55Z,42.805,6.029,13.3021,4.60010,2470.217,2020-10-08T10:49:49Z
2020-10-08T08:51:59Z,42.805,6.029,13.3005,4.59999,2470.217,2020-10-08T10:52:52Z
2020-10-08T08:55:02Z,42.805,6.029,13.3004,4.60020,2470.217,2020-10-08T10:55:55Z
2020-10-08T08:58:05Z,42.805,6.029,13.3016,4.60011,2470.227,2020-10-08T10:58:58Z
2020-10-08T09:01:08Z,42.805,6.029,13.2994,4.60063,2470.203,2020-10-08T11:02:01Z
2020-10-08T09:04:11Z,42.805,6.029,13.3044,4.60006,2470.203,2020-10-08T11:05:04Z
2020-10-08T09:07:14Z,42.805,6.029,13.3019,4.60026,2470.217,2020-10-08T11:08:08Z
2020-10-08T09:10:17Z,42.805,6.029,13.3011,4.60007,2470.217,2020-10-08T11:11:11Z
2020-10-08T09:13:20Z,42.805,6.029,13.3005,4.60014,2470.217,2020-10-08T11:14:14Z
2020-10-08T09:16:23Z,42.805,6.029,13.3015,4.60043,2470.203,2020-10-08T11:17:17Z
2020-10-08T09:19:27Z,42.805,6.029,13.3010,4.60019,2470.217,2020-10-08T11:20:20Z
2020-10-08T09:22:30Z,42.805,6.029,13.3023,4.60026,2470.217,2020-10-08T11:23:23Z
2020-10-08T09:25:33Z,42.805,6.029,13.3011,4.60018,2470.24,2020-10-08T11:26:26Z
2020-10-08T09:28:36Z,42.805,6.029,13.3019,4.60016,2470.203,2020-10-08T11:29:29Z
2020-10-08T09:31:39Z,42.805,6.029,13.2998,4.60016,2470.24,2020-10-08T11:32:33Z
2020-10-08T09:34:42Z,42.805,6.029,13.3006,4.60003,2470.203,2020-10-08T11:35:36Z
2020-10-08T09:37:45Z,42.805,6.029,13.2996,4.60008,2470.24,2020-10-08T11:38:39Z
2020-10-08T09:40:48Z,42.805,6.029,13.2999,4.59999,2470.203,2020-10-08T11:41:42Z
2020-10-08T09:43:52Z,42.805,6.029,13.3005,4.60028,2470.203,2020-10-08T11:44:45Z
2020-10-08T09:46:55Z,42.805,6.029,13.3029,4.60006,2470.227,2020-10-08T11:47:48Z
2020-10-08T09:49:58Z,42.805,6.029,13.2998,4.60001,2470.203,2020-10-08T11:50:51Z
2020-10-08T09:53:01Z,42.805,6.029,13.3008,4.59990,2470.227,2020-10-08T11:53:54Z
2020-10-08T09:56:04Z,42.805,6.029,13.3019,4.60014,2470.227,2020-10-08T11:56:58Z
2020-10-08T09:59:07Z,42.805,6.029,13.3014,4.60019,2470.227,2020-10-08T12:00:01Z
2020-10-08T10:02:10Z,42.805,6.029,13.3009,4.60011,2470.203,2020-10-08T12:03:04Z
2020-10-08T10:05:13Z,42.805,6.029,13.3015,4.60011,2470.24,2020-10-08T12:06:07Z
2020-10-08T10:08:17Z,42.805,6.029,13.3037,4.60012,2470.227,2020-10-08T12:09:10Z
2020-10-08T10:11:20Z,42.805,6.029,13.3010,4.60002,2470.24,2020-10-08T12:12:13Z
2020-10-08T10:14:23Z,42.805,6.029,13.3005,4.60007,2470.264,2020-10-08T12:15:16Z
2020-10-08T10:17:26Z,42.805,6.029,13.3004,4.60010,2470.264,2020-10-08T12:18:19Z
2020-10-08T10:20:29Z,42.805,6.029,13.3014,4.60016,2470.227,2020-10-08T12:21:23Z
2020-10-08T10:23:32Z,42.805,6.029,13.3015,4.60009,2470.25,2020-10-08T12:24:26Z
2020-10-08T10:26:35Z,42.805,6.029,13.3029,4.60017,2470.264,2020-10-08T12:27:29Z
2020-10-08T10:29:38Z,42.805,6.029,13.3008,4.60020,2470.264,2020-10-08T12:30:32Z
2020-10-08T10:32:42Z,42.805,6.029,13.3012,4.60024,2470.227,2020-10-08T12:33:35Z
2020-10-08T10:35:45Z,42.805,6.029,13.2986,4.60003,2470.24,2020-10-08T12:36:38Z
2020-10-08T10:38:48Z,42.805,6.029,13.3025,4.60023,2470.203,2020-10-08T12:39:41Z
2020-10-08T10:41:51Z,42.805,6.029,13.3008,4.60009,2470.24,2020-10-08T12:42:44Z
2020-10-08T10:44:54Z,42.805,6.029,13.2971,4.60006,2470.24,2020-10-08T12:45:47Z
2020-10-08T10:47:57Z,42.805,6.029,13.2973,4.59987,2470.203,2020-10-08T12:48:51Z
2020-10-08T10:51:00Z,42.805,6.029,13.2982,4.59988,2470.227,2020-10-08T12:51:54Z
2020-10-08T10:54:03Z,42.805,6.029,13.2974,4.59994,2470.24,2020-10-08T12:54:57Z
2020-10-08T10:57:07Z,42.805,6.029,13.2969,4.59991,2470.25,2020-10-08T12:58:00Z
2020-10-08T11:00:10Z,42.805,6.029,13.2973,4.60000,2470.203,2020-10-08T13:01:03Z
2020-10-08T11:03:13Z,42.805,6.029,13.2975,4.59996,2470.264,2020-10-08T13:04:06Z
2020-10-08T11:06:16Z,42.805,6.029,13.3013,4.60012,2470.227,2020-10-08T13:07:09Z
2020-10-08T11:09:19Z,42.805,6.029,13.3019,4.60027,2470.227,2020-10-08T13:10:12Z
2020-10-08T11:12:22Z,42.805,6.029,13.3011,4.60015,2470.24,2020-10-08T13:13:16Z
2020-10-08T11:15:25Z,42.805,6.029,13.3006,4.60008,2470.24,2020-10-08T13:16:19Z
2020-10-08T11:18:28Z,42.805,6.029,13.3004,4.60005,2470.264,2020-10-08T13:19:22Z
2020-10-08T11:21:31Z,42.805,6.029,13.3006,4.60006,2470.24,2020-10-08T13:22:25Z
2020-10-08T11:24:35Z,42.805,6.029,13.3015,4.60011,2470.227,2020-10-08T13:25:28Z
2020-10-08T11:27:38Z,42.805,6.029,13.3018,4.60016,2470.227,2020-10-08T13:28:31Z
2020-10-08T11:30:41Z,42.805,6.029,13.3011,4.60010,2470.227,2020-10-08T13:31:34Z
2020-10-08T11:33:44Z,42.805,6.029,13.3011,4.60017,2470.217,2020-10-08T13:34:37Z
2020-10-08T11:36:47Z,42.805,6.029,13.2992,4.60005,2470.24,2020-10-08T13:37:41Z
2020-10-08T11:39:50Z,42.805,6.029,13.3012,4.60008,2470.24,2020-10-08T13:40:44Z
2020-10-08T11:42:53Z,42.805,6.029,13.3020,4.60005,2470.24,2020-10-08T13:43:47Z
2020-10-08T11:45:56Z,42.805,6.029,13.3004,4.60019,2470.217,2020-10-08T13:46:50Z
2020-10-08T11:49:00Z,42.805,6.029,13.3011,4.59999,2470.24,2020-10-08T13:49:53Z
2020-10-08T11:52:03Z,42.805,6.029,13.3002,4.60056,2470.24,2020-10-08T13:52:56Z
2020-10-08T11:55:06Z,42.805,6.029,13.3003,4.60031,2470.203,2020-10-08T13:55:59Z
2020-10-08T11:58:09Z,42.805,6.029,13.2982,4.60012,2470.227,2020-10-08T13:59:02Z
2020-10-08T12:01:12Z,42.805,6.029,13.2975,4.60010,2470.217,2020-10-08T14:02:06Z
2020-10-08T12:04:15Z,42.805,6.029,13.2977,4.60005,2470.264,2020-10-08T14:05:09Z
2020-10-08T12:07:18Z,42.805,6.029,13.2978,4.60025,2470.264,2020-10-08T14:08:12Z
2020-10-08T12:10:21Z,42.805,6.029,13.2979,4.60008,2470.217,2020-10-08T14:11:15Z
2020-10-08T12:13:25Z,42.805,6.029,13.3011,4.60014,2470.217,2020-10-08T14:14:18Z
2020-10-08T12:16:28Z,42.805,6.029,13.2983,4.60011,2470.227,2020-10-08T14:17:21Z
2020-10-08T12:19:31Z,42.805,6.029,13.2976,4.60017,2470.227,2020-10-08T14:20:24Z
2020-10-08T12:22:34Z,42.805,6.029,13.2989,4.60015,2470.217,2020-10-08T14:23:27Z
2020-10-08T12:25:37Z,42.805,6.029,13.2971,4.60010,2470.24,2020-10-08T14:26:31Z
2020-10-08T12:28:40Z,42.805,6.029,13.2977,4.60002,2470.24,2020-10-08T14:29:34Z
2020-10-08T12:31:43Z,42.805,6.029,13.2976,4.59994,2470.24,2020-10-08T14:32:37Z
2020-10-08T12:34:46Z,42.805,6.029,13.2974,4.59999,2470.227,2020-10-08T14:35:40Z
2020-10-08T12:37:50Z,42.805,6.029,13.2970,4.60010,2470.203,2020-10-08T14:38:43Z
2020-10-08T12:40:53Z,42.805,6.029,13.2976,4.59997,2470.25,2020-10-08T14:41:46Z
2020-10-08T12:43:56Z,42.805,6.029,13.2989,4.60007,2470.227,2020-10-08T14:44:49Z
2020-10-08T12:46:59Z,42.805,6.029,13.3004,4.60011,2470.227,2020-10-08T14:47:52Z
2020-10-08T12:50:02Z,42.805,6.029,13.2971,4.60021,2470.203,2020-10-08T14:50:56Z
2020-10-08T12:53:05Z,42.805,6.029,13.2980,4.59994,2470.217,2020-10-08T14:53:59Z
2020-10-08T12:56:08Z,42.805,6.029,13.2979,4.60018,2470.217,2020-10-08T14:57:02Z
2020-10-08T12:59:11Z,42.805,6.029,13.2978,4.59997,2470.203,2020-10-08T15:00:05Z
2020-10-08T13:02:15Z,42.805,6.029,13.2976,4.60003,2470.203,2020-10-08T15:03:08Z
2020-10-08T13:05:18Z,42.805,6.029,13.2984,4.60008,2470.25,2020-10-08T15:06:11Z
2020-10-08T13:08:21Z,42.805,6.029,13.2972,4.59996,2470.24,2020-10-08T15:09:14Z
2020-10-08T13:11:24Z,42.805,6.029,13.2976,4.60008,2470.203,2020-10-08T15:12:17Z
2020-10-08T13:14:27Z,42.805,6.029,13.2971,4.59996,2470.227,2020-10-08T15:15:21Z
2020-10-08T13:17:30Z,42.805,6.029,13.2974,4.59991,2470.24,2020-10-08T15:18:24Z
2020-10-08T13:20:33Z,42.805,6.029,13.2978,4.59997,2470.217,2020-10-08T15:21:27Z
2020-10-08T13:23:36Z,42.805,6.029,13.2976,4.59997,2470.217,2020-10-08T15:24:30Z
2020-10-08T13:26:40Z,42.805,6.029,13.2974,4.59994,2470.18,2020-10-08T15:27:33Z
2020-10-08T13:29:43Z,42.805,6.029,13.2973,4.59996,2470.227,2020-10-08T15:30:36Z
2020-10-08T13:32:46Z,42.805,6.029,13.2972,4.59988,2470.203,2020-10-08T15:33:39Z
2020-10-08T13:35:49Z,42.805,6.029,13.2973,4.59991,2470.194,2020-10-08T15:36:42Z
2020-10-08T13:38:52Z,42.805,6.029,13.3001,4.59991,2470.194,2020-10-08T15:39:46Z
2020-10-08T13:41:55Z,42.805,6.029,13.2977,4.59994,2470.217,2020-10-08T15:42:49Z
2020-10-08T13:44:58Z,42.805,6.029,13.2976,4.59997,2470.203,2020-10-08T15:45:52Z
2020-10-08T13:48:01Z,42.805,6.029,13.2990,4.59999,2470.227,2020-10-08T15:48:55Z
2020-10-08T13:51:05Z,42.805,6.029,13.2975,4.59996,2470.18,2020-10-08T15:51:58Z
2020-10-08T13:54:08Z,42.805,6.029,13.2984,4.60032,2470.18,2020-10-08T15:55:01Z
2020-10-08T13:57:11Z,42.805,6.029,13.2975,4.60002,2470.156,2020-10-08T15:58:04Z
2020-10-08T14:00:14Z,42.805,6.029,13.2973,4.59998,2470.203,2020-10-08T16:01:07Z
2020-10-08T14:03:17Z,42.805,6.029,13.2977,4.59991,2470.203,2020-10-08T16:04:11Z
2020-10-08T14:06:20Z,42.805,6.029,13.2973,4.59995,2470.217,2020-10-08T16:07:14Z
2020-10-08T14:09:23Z,42.805,6.029,13.2971,4.59994,2470.194,2020-10-08T16:10:17Z
2020-10-08T14:12:26Z,42.805,6.029,13.2971,4.59996,2470.156,2020-10-08T16:13:20Z
2020-10-08T14:15:30Z,42.805,6.029,13.2973,4.59992,2470.194,2020-10-08T16:16:23Z
2020-10-08T14:18:33Z,42.805,6.029,13.2976,4.59991,2470.18,2020-10-08T16:19:26Z
2020-10-08T14:21:36Z,42.805,6.029,13.2977,4.59997,2470.18,2020-10-08T16:22:29Z
2020-10-08T14:24:39Z,42.805,6.029,13.2971,4.59986,2470.217,2020-10-08T16:25:32Z
2020-10-08T14:27:42Z,42.805,6.029,13.2974,4.59985,2470.203,2020-10-08T16:28:35Z
2020-10-08T14:30:45Z,42.805,6.029,13.2973,4.59990,2470.156,2020-10-08T16:31:39Z
2020-10-08T14:33:48Z,42.805,6.029,13.2978,4.59992,2470.166,2020-10-08T16:34:42Z
2020-10-08T14:36:51Z,42.805,6.029,13.2974,4.59982,2470.171,2020-10-08T16:37:45Z
2020-10-08T14:39:55Z,42.805,6.029,13.2976,4.59987,2470.203,2020-10-08T16:40:48Z
2020-10-08T14:42:58Z,42.805,6.029,13.2974,4.59981,2470.156,2020-10-08T16:43:51Z
2020-10-08T14:46:01Z,42.805,6.029,13.2973,4.59984,2470.194,2020-10-08T16:46:54Z
2020-10-08T14:49:04Z,42.805,6.029,13.2971,4.59983,2470.133,2020-10-08T16:49:57Z
2020-10-08T14:52:07Z,42.805,6.029,13.2971,4.59981,2470.217,2020-10-08T16:53:00Z
2020-10-08T14:55:10Z,42.805,6.029,13.2972,4.59981,2470.203,2020-10-08T16:56:04Z
2020-10-08T14:58:13Z,42.805,6.029,13.2974,4.59981,2470.156,2020-10-08T16:59:07Z
2020-10-08T15:01:16Z,42.805,6.029,13.2971,4.59980,2470.166,2020-10-08T17:02:10Z